This is the latest recevied weather packets stored in our database for station/object K6FAK-13. If no packets are shown the sender has not sent any weather packets the latest 1 day(s).
| Time | Temp. | Humidity | Pressure | Rain* | Wind** | Luminosity | Snow |
|---|---|---|---|---|---|---|---|
| 1777973190 | 11.67° C | 99% | 1016.8 hPa | 0 mm | 0.45 m/s, 154° | 0 W/m² | - |
| 1777972889 | 11.67° C | 99% | 1016.9 hPa | 0 mm | 0.45 m/s, 188° | 0 W/m² | - |
| 1777972585 | 11.67° C | 99% | 1016.7 hPa | 0 mm | 0.45 m/s, 196° | 0 W/m² | - |
| 1777972284 | 11.67° C | 99% | 1016.5 hPa | 0 mm | 2.24 m/s, 187° | 0 W/m² | - |
| 1777971981 | 11.67° C | 99% | 1016.5 hPa | 0 mm | 0.89 m/s, 212° | 0 W/m² | - |
| 1777971679 | 11.67° C | 99% | 1016.5 hPa | 0 mm | 2.24 m/s, 195° | 0 W/m² | - |
| 1777971376 | 11.67° C | 99% | 1016.6 hPa | 0 mm | 1.79 m/s, 212° | 0 W/m² | - |
| 1777971075 | 11.67° C | 99% | 1016.6 hPa | 0 mm | 1.34 m/s, 198° | 0 W/m² | - |
| 1777970772 | 11.67° C | 99% | 1016.7 hPa | 0 mm | 1.34 m/s, 233° | 0 W/m² | - |
| 1777970470 | 11.67° C | 99% | 1016.8 hPa | 0 mm | 0.45 m/s, 192° | 0 W/m² | - |
| 1777970168 | 11.67° C | 99% | 1016.9 hPa | 0 mm | 0 m/s | 0 W/m² | - |
| 1777969864 | 11.67° C | 99% | 1016.8 hPa | 0 mm | 0.89 m/s, 213° | 0 W/m² | - |
| 1777969559 | 11.67° C | 99% | 1016.8 hPa | 0 mm | 0.89 m/s, 202° | 0 W/m² | - |
| 1777969257 | 11.67° C | 99% | 1016.7 hPa | 0 mm | 1.34 m/s, 215° | 0 W/m² | - |
| 1777968953 | 11.67° C | 99% | 1016.8 hPa | 0 mm | 0.89 m/s, 205° | 0 W/m² | - |
| 1777968650 | 11.67° C | 99% | 1017.3 hPa | 0 mm | 0 m/s | 0 W/m² | - |
| 1777968346 | 11.67° C | 99% | 1017.2 hPa | 0 mm | 1.34 m/s, 208° | 0 W/m² | - |
| 1777968043 | 11.67° C | 99% | 1017.5 hPa | 0 mm | 1.34 m/s, 210° | 0 W/m² | - |
| 1777967739 | 11.67° C | 99% | 1017.7 hPa | 0 mm | 0 m/s | 0 W/m² | - |
| 1777967436 | 11.67° C | 99% | 1017.4 hPa | 0 mm | 0 m/s | 0 W/m² | - |
| 1777967133 | 11.67° C | 99% | 1017.2 hPa | 1.27 mm | 0.45 m/s, 209° | 0 W/m² | - |
| 1777966830 | 11.67° C | 99% | 1017.3 hPa | 1.27 mm | 0 m/s | 0 W/m² | - |
| 1777966527 | 11.67° C | 99% | 1017.5 hPa | 0 mm | 0.45 m/s, 158° | 0 W/m² | - |
| 1777966226 | 11.67° C | 99% | 1017 hPa | 0 mm | 0.45 m/s, 184° | 0 W/m² | - |
| 1777965921 | 11.67° C | 99% | 1017.5 hPa | 0 mm | 0.45 m/s, 202° | 0 W/m² | - |
* Rain latest hour (hover to see other rain measurements)
** Current wind speed in m/s (hover to see current wind gust speed)